Weather History for New Bedford, MA

Change the Weather History Date:

Friday, February 6, 2009

  Actual Average Record
Temperature  
Mean Temperature 14 °F -  
Max Temperature 26 °F 37 °F 66 °F (1991)
Min Temperature 1 °F 21 °F -2 °F (1993)
Degree Days  
Heating Degree Days 52    
Moisture  
Dew Point 3 °F    
Average Humidity 62    
Maximum Humidity 84    
Minimum Humidity 43    
Precipitation  
Precipitation 0.00 in - - ()
Sea Level Pressure  
Sea Level Pressure 30.37 in    
Wind  
Wind Speed 3 mph (WSW)    
Max Wind Speed 10 mph    
Max Gust Speed 18 mph    
Visibility 10 miles    
Events      
Averages and records for this station are not official NWS values.
T = Trace of Precipitation, MM = Missing Value Source: NWS Daily Summary

Daily Weather History Graph

Daily Weather History Graph

Search for Another Location

Airport:

Trip Planner

Search our weather history database for the weather conditions in past years. The results will help you decide how hot, cold, wet, or windy it might be!

Date:

Astronomy

Feb. 06, 2009 Rise Set
Actual Time 6:50 AM EST 5:06 PM EST
Civil Twilight 6:21 AM EST 5:35 PM EST
Nautical Twilight 5:48 AM EST 6:08 PM EST
Astronomical Twilight 5:15 AM EST 6:40 PM EST
Moon 1:35 PM EST (2/6) 4:36 AM EST (2/6)
Length of Visible Light 11h 13m
Length of Day
10h 15m
Waxing Gibbous, 88% of the Moon is Illuminated
Feb 6
Waxing Gibbous
Feb 9
Full
Feb 16
Last Quarter
Feb 24
New
Mar 4
First Quarter

Hourly Weather History & Observations

Time (EST) Temp. Windchill Dew Point Humidity Pressure Visibility Wind Dir Wind Speed Gust Speed Precip Events Conditions
12:53 AM 10.0 °F - -2.9 °F 56% 30.34 in 10.0 mi Calm Calm - N/A   Clear
1:53 AM 9.0 °F 2.4 °F -2.9 °F 59% 30.35 in 10.0 mi West 3.5 mph - N/A   Clear
2:53 AM 8.1 °F -0.5 °F -2.9 °F 61% 30.34 in 10.0 mi West 4.6 mph - N/A   Clear
3:53 AM 7.0 °F - -2.9 °F 64% 30.34 in 10.0 mi Calm Calm - N/A   Clear
4:53 AM 3.0 °F - -2.9 °F 76% 30.35 in 10.0 mi Calm Calm - N/A   Clear
5:53 AM 3.9 °F - -2.0 °F 76% 30.36 in 10.0 mi Calm Calm - N/A   Clear
6:53 AM 1.9 °F - -2.9 °F 80% 30.37 in 10.0 mi Calm Calm - N/A   Partly Cloudy
7:53 AM 10.9 °F 2.9 °F 1.0 °F 64% 30.38 in 10.0 mi SW 4.6 mph - N/A   Partly Cloudy
8:53 AM 12.9 °F 5.2 °F 3.0 °F 65% 30.40 in 10.0 mi West 4.6 mph - N/A   Overcast
9:53 AM 18.0 °F 8.7 °F 3.0 °F 52% 30.40 in 10.0 mi West 6.9 mph - N/A   Overcast
10:53 AM 19.0 °F 8.2 °F 3.0 °F 50% 30.39 in 10.0 mi WNW 9.2 mph - N/A   Overcast
11:53 AM 21.0 °F 10.6 °F 3.9 °F 48% 30.37 in 10.0 mi WSW 9.2 mph - N/A   Overcast
12:53 PM 21.9 °F 14.5 °F 5.0 °F 48% 30.35 in 10.0 mi Variable 5.8 mph - N/A   Clear
1:53 PM 24.1 °F 14.4 °F 6.1 °F 46% 30.34 in 10.0 mi West 9.2 mph - N/A   Clear
2:53 PM 26.1 °F 16.2 °F 6.1 °F 43% 30.34 in 10.0 mi West 10.4 mph - N/A   Clear
3:53 PM 26.1 °F 17.6 °F 8.1 °F 47% 30.33 in 10.0 mi SW 8.1 mph 18.4 mph N/A   Clear
4:53 PM 25.0 °F 16.3 °F 7.0 °F 46% 30.32 in 10.0 mi SW 8.1 mph - N/A   Clear
5:53 PM 24.1 °F 19.7 °F 8.1 °F 51% 30.35 in 10.0 mi SW 3.5 mph - N/A   Clear
6:53 PM 19.9 °F - 8.1 °F 60% 30.37 in 10.0 mi Calm Calm - N/A   Clear
7:53 PM 16.0 °F - 8.1 °F 71% 30.38 in 10.0 mi Calm Calm - N/A   Clear
8:53 PM 14.0 °F - 7.0 °F 74% 30.38 in 10.0 mi Calm Calm - N/A   Clear
9:53 PM 14.0 °F 8.2 °F 9.0 °F 80% 30.40 in 10.0 mi West 3.5 mph - N/A   Clear
10:53 PM 12.9 °F - 8.1 °F 81% 30.41 in 10.0 mi Calm Calm - N/A   Clear
11:53 PM 12.0 °F - 8.1 °F 84% 30.40 in 10.0 mi Calm Calm - N/A   Clear